Flag for United Kingdom Weather past 2 weeks in Cambridge, England, United Kingdom

Now
46 °F

Clear.


Feels Like: 43 °F
Forecast: 45 / 64 °F
Wind: 6 mph from Southwest

Location: Mildenhall Royal Air Force Base

Current Time: Sep 5, 2015 at 2:51:07 AM

Latest Report: Sep 5, 2015 at 1:58 AM


Visibility: N/A

Pressure: 30.04 "Hg

Humidity: 94%

Dew point: 45 °F

Location of CambridgeLocation

Historic Weather in Cambridge — Graph

°F

Cambridge temperature yesterday

Maximum temperature yesterday: 58 °F (at 2:58 PM)
Minimum temperature yesterday: 51 °F (at 11:58 PM)
Average temperature yesterday: 55 °F

Past Weeks' High & Low Weather Summary

 TemperatureHumidityPressure
High84 °F (Aug 22, 2:58 PM)100% (Aug 22, 4:58 AM)30.13 "Hg (Aug 22, 4:58 AM)
Low46 °F (Sep 5, 1:58 AM)42% (Aug 22, 2:58 PM)29.45 "Hg (Aug 24, 4:58 PM)
Average61 °F83%29.89 "Hg
* Reported Aug 21 1:58 AM — Sep 5 1:58 AM, Cambridge, Weather by CustomWeather, © 2015

Note: Actual official high and low records may vary slightly from our data, if they occured in-between our weather recording intervals... More about our weather records

Advertising

Cambridge weather history for previous 24 hours

 ConditionsComfort  
Time TempWeatherWind HumidityBarometerVisibility
1:58 AM
Sat, Sep 5
46 °FClear.6 mph94%30.04 "HgN/A
12:58 AM48 °FClear.5 mph92%30.04 "HgN/A
11:58 PM
Fri, Sep 4
51 °FPassing clouds.5 mph90%30.05 "HgN/A
11:03 PM52 °FPartly cloudy.5 mph82%30.05 "HgN/A
9:58 PM53 °FOvercast.6 mph82%30.05 "HgN/A
8:58 PM55 °FOvercast.7 mph74%30.05 "HgN/A
7:58 PM56 °FOvercast.7 mph72%30.04 "HgN/A
6:58 PM57 °FMostly cloudy.8 mph69%30.04 "HgN/A
5:58 PM57 °FMostly cloudy.12 mph72%30.03 "HgN/A
4:58 PM57 °FMore clouds than sun.8 mph73%30.02 "HgN/A
3:58 PM58 °FOvercast.9 mph71%30.03 "HgN/A
2:58 PM58 °FOvercast.12 mph70%30.03 "HgN/A
1:58 PM58 °FOvercast.13 mph71%30.04 "HgN/A
12:58 PM56 °FOvercast.17 mph73%30.03 "HgN/A
11:58 AM56 °FOvercast.12 mph74%30.03 "HgN/A
10:58 AM56 °FMore clouds than sun.13 mph74%30.02 "HgN/A
10:03 AM57 °FMostly cloudy.12 mph67%30.01 "HgN/A
8:58 AM55 °FPartly sunny.14 mph75%30.00 "HgN/A
7:58 AM55 °FPartly sunny.13 mph77%29.99 "HgN/A
6:58 AM53 °FMostly cloudy.9 mph84%29.98 "HgN/A
5:58 AM51 °FPassing clouds.9 mph89%29.97 "HgN/A
5:01 AM54 °FLight rain. Overcast.8 mph82%29.96 "HgN/A
3:58 AM52 °FOvercast.9 mph88%29.97 "HgN/A
2:58 AM52 °FOvercast.8 mph88%29.98 "HgN/A
Weather by CustomWeather, © 2015

See weather overviewHow to use our weather pages